CW5212 Weather Reports


Display with metric or nautical units.
time (UTC)temp
F
wind
direction
speed
MPH
gust
MPH
rain 1hr
in
rain 24hr
in
rain mn
in
humidity
%
barometer
mb
20260510001533 63 261 9.0 15.0 0.00 0.00 0.00 22 950.0
20260510000018 63 265 10.0 14.0 0.00 0.00 0.00 22 950.1
20260509234555 62 218 9.0 15.0 0.00 0.00 0.00 23 949.8
20260509233027 63 261 9.0 13.0 0.00 0.00 0.00 22 949.7
20260509231504 62 268 6.0 14.0 0.00 0.00 0.00 23 950.0
20260509230041 62 221 7.0 13.0 0.00 0.00 0.00 22 950.0
20260509224521 62 295 12.0 19.0 0.00 0.00 0.00 24 949.8
20260509223100 61 229 8.0 18.0 0.00 0.00 0.00 24 950.1
20260509221537 60 294 6.0 18.0 0.00 0.00 0.00 27 950.3
20260509220011 61 286 9.0 14.0 0.00 0.00 0.00 24 950.3
20260509214550 60 289 9.0 16.0 0.00 0.00 0.00 23 950.5
20260509213031 60 211 8.0 19.0 0.00 0.00 0.00 25 950.5
20260509211505 60 283 9.0 14.0 0.00 0.00 0.00 28 950.5
20260509210039 60 227 6.0 15.0 0.00 0.00 0.00 27 950.6
20260509204519 60 246 6.0 13.0 0.00 0.00 0.00 27 950.7
20260509203111 60 265 7.0 13.0 0.00 0.00 0.00 25 950.8
20260509201532 58 229 8.0 15.0 0.00 0.00 0.00 29 950.7
20260509200013 58 282 8.0 14.0 0.00 0.00 0.00 27 950.8
20260509194547 57 263 5.0 18.0 0.00 0.00 0.00 31 950.8
20260509193035 57 281 8.0 15.0 0.00 0.00 0.00 31 950.9
20260509191510 57 296 6.0 15.0 0.00 0.00 0.00 27 950.9
20260509190057 57 286 5.0 15.0 0.00 0.00 0.00 33 950.9
20260509184550 56 273 7.0 15.0 0.00 0.00 0.00 36 950.9
20260509183033 55 288 1.0 16.0 0.00 0.00 0.00 36 950.8
20260509181525 56 259 6.0 13.0 0.00 0.00 0.00 37 950.5
20260509180015 55 271 9.0 15.0 0.00 0.00 0.00 36 950.3
20260509174513 54 246 4.0 11.0 0.00 0.00 0.00 34 950.4
20260509173013 54 175 4.0 12.0 0.00 0.00 0.00 41 950.4
20260509171521 54 255 7.0 12.0 0.00 0.00 0.00 39 950.4
20260509170009 53 273 6.0 11.0 0.00 0.00 0.00 40 950.4
20260509164505 52 269 6.0 13.0 0.00 0.00 0.00 44 950.4
20260509163009 52 288 6.0 12.0 0.00 0.00 0.00 43 950.4
20260509161512 51 288 5.0 10.0 0.00 0.00 0.00 44 950.3
20260509160017 51 226 3.0 11.0 0.00 0.00 0.00 43 950.2
20260509154520 50 297 6.0 10.0 0.00 0.00 0.00 45 950.2
20260509153021 50 296 4.0 9.0 0.00 0.00 0.00 45 950.1
20260509151514 49 257 6.0 10.0 0.00 0.00 0.00 41 950.1
20260509144540 49 305 1.0 6.0 0.00 0.00 0.00 41 949.8
20260509143006 48 242 2.0 8.0 0.00 0.00 0.00 41 949.9
20260509141544 47 240 4.0 9.0 0.00 0.00 0.00 43 949.8
20260509140021 46 238 6.0 9.0 0.00 0.00 0.00 42 949.6
20260509134555 46 237 6.0 9.0 0.00 0.00 0.00 40 949.4
20260509133035 46 250 5.0 8.0 0.00 0.00 0.00 39 949.3
20260509131518 45 233 3.0 5.0 0.00 0.00 0.00 38 949.2
20260509130055 44 281 1.0 4.0 0.00 0.00 0.00 38 949.1
20260509124535 45 274 5.0 9.0 0.00 0.00 0.00 37 948.9
20260509123006 44 269 5.0 8.0 0.00 0.00 0.00 38 948.8
20260509121546 44 276 5.0 7.0 0.00 0.00 0.00 38 948.6
20260509120019 44 268 5.0 8.0 0.00 0.00 0.00 38 948.4
20260509114603 45 275 7.0 10.0 0.00 0.00 0.00 37 948.4
20260509113034 45 290 4.0 9.0 0.00 0.00 0.00 36 948.3
20260509111513 45 270 4.0 8.0 0.00 0.00 0.00 35 948.2
20260509110047 45 294 3.0 7.0 0.00 0.00 0.00 36 948.1
20260509104533 44 287 5.0 7.0 0.00 0.00 0.00 37 948.1
20260509103007 45 272 3.0 6.0 0.00 0.00 0.00 35 948.0
20260509101541 46 273 5.0 9.0 0.00 0.00 0.00 32 947.8
20260509100030 46 286 7.0 10.0 0.00 0.00 0.00 33 947.6
20260509094555 44 260 4.0 8.0 0.00 0.00 0.00 38 947.5
20260509093036 45 264 6.0 9.0 0.00 0.00 0.00 37 947.3
20260509091511 45 267 6.0 8.0 0.00 0.00 0.00 37 947.1
20260509090049 46 247 6.0 8.0 0.00 0.00 0.00 36 946.8
20260509084532 47 271 6.0 11.0 0.00 0.00 0.00 35 946.8
20260509083004 47 261 6.0 10.0 0.00 0.00 0.00 34 946.7
20260509081547 48 268 7.0 11.0 0.00 0.00 0.00 32 946.7
20260509080031 49 234 8.0 14.0 0.00 0.00 0.00 30 946.6
20260509074525 49 275 7.0 15.0 0.00 0.00 0.00 29 946.6
20260509073009 51 272 11.0 19.0 0.00 0.00 0.00 27 946.4
20260509071608 51 287 10.0 18.0 0.00 0.00 0.00 27 946.4
20260509070046 51 261 10.0 17.0 0.00 0.00 0.00 26 946.3
20260509064531 52 246 12.0 20.0 0.00 0.00 0.00 25 946.0
20260509063015 52 225 11.0 18.0 0.00 0.00 0.00 24 945.8
20260509061552 53 249 12.0 19.0 0.00 0.00 0.00 23 946.1
20260509060029 53 228 10.0 19.0 0.00 0.00 0.00 22 946.0
20260509054614 53 215 14.0 20.0 0.00 0.00 0.00 21 945.9
20260509054502 53 236 13.0 20.0 0.00 0.00 0.00 22 945.9
20260509053040 54 239 12.0 22.0 0.00 0.00 0.00 21 946.0
20260509051527 55 250 14.0 23.0 0.00 0.00 0.00 19 945.9
20260509050058 56 223 12.0 26.0 0.00 0.00 0.00 17 945.8
20260509044544 57 231 12.0 28.0 0.00 0.00 0.00 16 945.8
20260509043010 57 283 18.0 30.0 0.00 0.00 0.00 16 945.5
20260509041548 58 242 20.0 29.0 0.00 0.00 0.00 17 945.3
20260509040023 57 234 16.0 25.0 0.00 0.00 0.00 19 945.3
20260509034503 57 244 15.0 25.0 0.00 0.00 0.00 18 945.5
20260509033059 57 246 15.0 22.0 0.00 0.00 0.00 17 945.4
20260509033003 57 236 16.0 22.0 0.00 0.00 0.00 17 945.4
20260509031603 58 224 15.0 26.0 0.00 0.00 0.00 17 945.1
20260509031504 58 221 17.0 26.0 0.00 0.00 0.00 16 945.2
20260509030003 58 247 14.0 21.0 0.00 0.00 0.00 17 945.1
20260509024554 58 246 16.0 23.0 0.00 0.00 0.00 18 945.0
20260509023059 58 244 14.0 22.0 0.00 0.00 0.00 19 944.8
20260509021552 59 240 16.0 26.0 0.00 0.00 0.00 19 944.6
20260509020059 59 259 18.0 30.0 0.00 0.00 0.00 17 944.6
20260509014556 60 242 18.0 30.0 0.00 0.00 0.00 17 944.6
20260509013043 61 257 22.0 30.0 0.00 0.00 0.00 18 944.3
20260509011510 62 246 22.0 34.0 0.00 0.00 0.00 19 944.3
20260509010044 63 244 16.0 34.0 0.00 0.00 0.00 20 944.2
20260509004525 64 273 22.0 29.0 0.00 0.00 0.00 19 943.9
20260509003102 65 239 17.0 29.0 0.00 0.00 0.00 21 944.1